Location: Al Mulaqqa?ah
(24.1833°N, 32.8833°E)
Time: 22:16:26
(UTC+00:00)

Cosmos 1707 - Pass Details

Date: 26 September 2021
Orbit: 515 x 528 km, 82.5° (Epoch: 21 October)

Event Time Altitude Azimuth Distance (km) Brightness Sun altitude
Rises 16:29:38 0° 356° (N) 2,662 6.4 -12.0°
Reaches altitude 10° 16:31:46 10° 357° (N) 1,770 5.5 -12.5°
Maximum altitude 16:35:40 82° 83° (E) 535 2.6 -13.4°
Drops below altitude 10° 16:39:31 10° 173° (S) 1,756 5.3 -14.3°
Sets 16:41:39 0° 174° (S) 2,639 6.2 -14.7°
